Weather History for Oakland, MD

Change the Weather History Date:

Saturday, July 13, 2013

  Actual Average (KMGW) Record (KMGW)
Temperature  
Mean Temperature 66 °F 73 °F  
Max Temperature 73 °F 84 °F 95 °F (1995)
Min Temperature 59 °F 63 °F 50 °F (1976)
Degree Days  
Heating Degree Days 0 0  
Month to date heating degree days 0  
Since 1 June heating degree days 31  
Since 1 July heating degree days 0  
Cooling Degree Days 1 8  
Month to date cooling degree days 104  
Year to date cooling degree days 333  
Since 1 June cooling degree days 266  
Growing Degree Days 16 (Base 50)    
Moisture  
Dew Point 66 °F    
Average Humidity 91    
Maximum Humidity 100    
Minimum Humidity 73    
Precipitation  
Precipitation 0.00 in 0.16 in 2.19 in (2010)
Month to date precipitation 2.00  
Year to date precipitation 23.30  
Sea Level Pressure  
Sea Level Pressure 30.25 in    
Wind  
Wind Speed 6 mph (ESE)    
Max Wind Speed 15 mph    
Max Gust Speed 18 mph    
Visibility 8 miles    
Events Fog    
T = Trace of Precipitation, MM = Missing Value Source: NWS Daily Summary

Daily Weather History Graph

Daily Weather History Graph

Search for Another Location

Airport:

Trip Planner

Search our weather history database for the weather conditions in past years. The results will help you decide how hot, cold, wet, or windy it might be!

Date:

Astronomy

Jul. 13, 2013 Rise Set
Actual Time 6:01 AM EDT 8:44 PM EDT
Civil Twilight 5:29 AM EDT 9:16 PM EDT
Nautical Twilight 4:49 AM EDT 9:56 PM EDT
Astronomical Twilight 4:04 AM EDT 10:41 PM EDT
Moon 11:14 AM EDT (7/13) 11:26 PM EDT (7/13)
Length of Visible Light 15h 47m
Length of Day
14h 43m
Waxing Crescent, 25% of the Moon is Illuminated
Jul 13
Waxing Crescent
Jul 15
First Quarter
Jul 22
Full
Jul 29
Last Quarter
Aug 6
New

Hourly Weather History & Observations

Time (EDT) Temp. Dew Point Humidity Pressure Visibility Wind Dir Wind Speed Gust Speed Precip Events Conditions
12:15 AM 60.8 °F - N/A% 30.19 in 5.0 mi Calm Calm - N/A   Haze
12:35 AM 60.8 °F - N/A% 30.19 in 3.0 mi Calm Calm - N/A   Overcast
12:55 AM 60.8 °F - N/A% 30.18 in 3.0 mi NE 3.5 mph - N/A   Overcast
1:15 AM 60.8 °F - N/A% 30.18 in 3.0 mi East 3.5 mph - N/A   Overcast
1:35 AM 60.8 °F - N/A% 30.18 in 4.0 mi East 4.6 mph - N/A   Haze
1:55 AM 60.8 °F - N/A% 30.18 in 3.0 mi East 5.8 mph - N/A   Overcast
2:15 AM 60.8 °F - N/A% 30.18 in 4.0 mi East 5.8 mph - N/A   Haze
2:35 AM 60.8 °F - N/A% 30.18 in 4.0 mi East 6.9 mph - N/A   Haze
2:55 AM 59.0 °F - N/A% 30.18 in 5.0 mi East 6.9 mph - N/A   Haze
3:15 AM 59.0 °F - N/A% 30.18 in 7.0 mi East 6.9 mph - N/A   Scattered Clouds
3:35 AM 59.0 °F - N/A% 30.18 in 7.0 mi East 6.9 mph - N/A   Mostly Cloudy
3:55 AM 59.0 °F - N/A% 30.19 in 7.0 mi East 6.9 mph - N/A   Overcast
4:15 AM 59.0 °F - N/A% 30.17 in 5.0 mi ESE 8.1 mph - N/A   Haze
4:35 AM 59.0 °F - N/A% 30.18 in 2.0 mi ESE 6.9 mph - N/A   Mostly Cloudy
4:55 AM 59.0 °F - N/A% 30.17 in 0.8 mi East 6.9 mph - N/A   Overcast
5:15 AM 59.0 °F - N/A% 30.18 in 0.8 mi ESE 8.1 mph - N/A   Overcast
5:35 AM 59.0 °F - N/A% 30.18 in 1.2 mi ESE 6.9 mph - N/A   Overcast
5:55 AM 59.0 °F - N/A% 30.19 in 0.5 mi East 5.8 mph - N/A Fog Fog
6:15 AM 59.0 °F - N/A% 30.19 in 0.2 mi East 5.8 mph - N/A Fog Fog
6:35 AM 60.8 °F - N/A% 30.19 in 0.2 mi East 4.6 mph - N/A Fog Fog
6:55 AM 60.8 °F - N/A% 30.20 in 0.2 mi East 6.9 mph - N/A Fog Fog
7:15 AM 60.8 °F - N/A% 30.21 in 0.5 mi East 4.6 mph - N/A Fog Fog
7:35 AM 60.8 °F - N/A% 30.22 in 0.8 mi ESE 4.6 mph - N/A   Overcast
7:55 AM 60.8 °F - N/A% 30.22 in 4.0 mi ESE 6.9 mph - N/A   Haze
8:15 AM 60.8 °F - N/A% 30.23 in 7.0 mi SE 6.9 mph - N/A   Overcast
8:35 AM 62.6 °F - N/A% 30.24 in 10.0 mi ESE 3.5 mph - N/A   Overcast
8:55 AM 62.6 °F - N/A% 30.25 in 10.0 mi East 6.9 mph - N/A   Overcast
9:15 AM 62.6 °F 62.6 °F 100% 30.25 in 10.0 mi ESE 6.9 mph - N/A   Overcast
9:35 AM 62.6 °F 62.6 °F 100% 30.25 in 10.0 mi ESE 9.2 mph - N/A   Overcast
9:55 AM 62.6 °F 62.6 °F 100% 30.25 in 10.0 mi East 6.9 mph - N/A   Overcast
10:15 AM 64.4 °F 64.4 °F 100% 30.25 in 10.0 mi ESE 4.6 mph - N/A   Overcast
10:35 AM 64.4 °F 64.4 °F 100% 30.26 in 10.0 mi SE 5.8 mph - N/A   Overcast
10:55 AM 64.4 °F 64.4 °F 100% 30.26 in 10.0 mi SE 5.8 mph - N/A   Overcast
11:15 AM 66.2 °F 66.2 °F 100% 30.27 in 10.0 mi SE 4.6 mph - N/A   Overcast
11:35 AM 68.0 °F 64.4 °F 88% 30.27 in 7.0 mi SE 8.1 mph - N/A   Overcast
11:55 AM 68.0 °F 64.4 °F 88% 30.27 in 10.0 mi ESE 11.5 mph - N/A   Mostly Cloudy
12:20 PM 66.2 °F 64.4 °F 94% 30.28 in 10.0 mi SE 6.9 mph - N/A   Overcast
12:40 PM 68.0 °F 64.4 °F 88% 30.27 in 10.0 mi SE 8.1 mph - N/A   Overcast
1:00 PM 68.0 °F 64.4 °F 88% 30.27 in 10.0 mi ESE 11.5 mph 17.3 mph N/A   Overcast
1:20 PM 69.8 °F 64.4 °F 83% 30.27 in 10.0 mi SE 9.2 mph - N/A   Mostly Cloudy
1:40 PM 71.6 °F 66.2 °F 83% 30.27 in 10.0 mi SE 8.1 mph - N/A   Scattered Clouds
2:00 PM 69.8 °F 66.2 °F 88% 30.27 in 10.0 mi East 4.6 mph - N/A   Mostly Cloudy
2:20 PM 69.8 °F 66.2 °F 88% 30.27 in 10.0 mi ESE 5.8 mph - N/A   Overcast
2:40 PM 73.4 °F 68.0 °F 83% 30.27 in 10.0 mi ESE 9.2 mph - N/A   Mostly Cloudy
3:00 PM 73.4 °F 66.2 °F 78% 30.28 in 10.0 mi SSE 13.8 mph 18.4 mph N/A   Scattered Clouds
3:20 PM 71.6 °F 66.2 °F 83% 30.28 in 10.0 mi SSE 5.8 mph - N/A   Scattered Clouds
3:40 PM 73.4 °F 68.0 °F 83% 30.27 in 10.0 mi SE 12.7 mph 18.4 mph N/A   Scattered Clouds
4:00 PM 73.4 °F 64.4 °F 73% 30.27 in 10.0 mi SE 12.7 mph 17.3 mph N/A   Scattered Clouds
4:20 PM 71.6 °F 64.4 °F 78% 30.28 in 10.0 mi SE 9.2 mph - N/A   Scattered Clouds
4:40 PM 73.4 °F 66.2 °F 78% 30.27 in 10.0 mi ESE 10.4 mph - N/A   Mostly Cloudy
5:00 PM 73.4 °F 66.2 °F 78% 30.27 in 10.0 mi ESE 12.7 mph 17.3 mph N/A   Scattered Clouds
5:20 PM 73.4 °F 68.0 °F 83% 30.28 in 10.0 mi SE 13.8 mph 18.4 mph N/A   Clear
5:40 PM 73.4 °F 68.0 °F 83% 30.29 in 10.0 mi ESE 11.5 mph 17.3 mph N/A   Scattered Clouds
6:00 PM 71.6 °F 66.2 °F 83% 30.29 in 10.0 mi SE 8.1 mph - N/A   Scattered Clouds
6:20 PM 71.6 °F 68.0 °F 88% 30.29 in 10.0 mi SE 15.0 mph - N/A   Mostly Cloudy
6:40 PM 69.8 °F 68.0 °F 94% 30.29 in 10.0 mi ESE 12.7 mph - N/A   Mostly Cloudy
7:00 PM 69.8 °F 68.0 °F 94% 30.29 in 10.0 mi ESE 10.4 mph 16.1 mph N/A   Mostly Cloudy
7:20 PM 69.8 °F 68.0 °F 94% 30.30 in 10.0 mi ESE 8.1 mph - N/A   Scattered Clouds
7:40 PM 69.8 °F 68.0 °F 94% 30.30 in 10.0 mi SE 8.1 mph - N/A   Scattered Clouds
8:00 PM 68.0 °F 68.0 °F 100% 30.30 in 10.0 mi ESE 6.9 mph - N/A   Scattered Clouds
8:20 PM 68.0 °F 68.0 °F 100% 30.31 in 10.0 mi ESE 6.9 mph - N/A   Mostly Cloudy
8:40 PM 68.0 °F 68.0 °F 100% 30.32 in 10.0 mi ESE 5.8 mph - N/A   Overcast
9:00 PM 66.2 °F 66.2 °F 100% 30.32 in 10.0 mi East 5.8 mph - N/A   Overcast
9:20 PM 66.2 °F 66.2 °F 100% 30.32 in 10.0 mi East 6.9 mph - N/A   Overcast
9:40 PM 66.2 °F 66.2 °F 100% 30.33 in 10.0 mi East 8.1 mph - N/A   Overcast
10:00 PM 66.2 °F 66.2 °F 100% 30.34 in 10.0 mi ESE 10.4 mph - N/A   Overcast
10:20 PM 66.2 °F 66.2 °F 100% 30.35 in 10.0 mi East 11.5 mph - N/A   Mostly Cloudy
10:40 PM 66.2 °F 66.2 °F 100% 30.35 in 10.0 mi East 11.5 mph - N/A   Overcast
11:00 PM 66.2 °F 66.2 °F 100% 30.36 in 10.0 mi East 10.4 mph - N/A   Overcast
11:20 PM 66.2 °F - N/A% 30.36 in 10.0 mi East 10.4 mph - N/A   Overcast
11:40 PM 66.2 °F - N/A% 30.36 in 10.0 mi East 9.2 mph - N/A   Overcast